Cozumel, Mexico

5:01 PM EST on July 25, 2017 (GMT -0500)
Cozumel

Weather History for MMCZ - April, 2014

Change the Weather History Date:

Tuesday, April 1, 2014

  Actual Average Record
Temperature  
Mean Temperature 74 °F -  
Max Temperature 82 °F 85 °F 91 °F (1999)
Min Temperature 66 °F 73 °F 57 °F (2015)
Cooling Degree Days 9    
Growing Degree Days 24 (Base 50)    
Moisture  
Dew Point 70 °F    
Average Humidity 87    
Maximum Humidity 100    
Minimum Humidity 66    
Precipitation  
Precipitation 0.00 in - - ()
Sea Level Pressure  
Sea Level Pressure 30.02 in    
Wind  
Wind Speed 4 mph ()    
Max Wind Speed 15 mph    
Max Gust Speed -    
Visibility 7.5 miles    
Events      
Averages and records for this station are not official NWS values.
T = Trace of Precipitation, MM = Missing Value Source: Averaged Metar Reports

Daily Weather History Graph

Daily Weather History Graph

Search for Another Location

Airport or City:

Trip Planner

Search our weather history database for the weather conditions in past years. The results will help you decide how hot, cold, wet, or windy it might be!

Date:

Astronomy

Apr. 01, 2014 Rise Set
Actual Time 5:41 AM CST 6:02 PM CST
Civil Twilight 5:18 AM CST 6:24 PM CST
Nautical Twilight 4:53 AM CST 6:50 PM CST
Astronomical Twilight 4:26 AM CST 7:16 PM CST
Moon 6:58 AM CST (4/1) 8:05 PM CST (4/1)
Length of Visible Light 13h 05m
Length of Day
12h 21m
Waxing Crescent, 5% of the Moon is Illuminated
Apr 1
Waxing Crescent
Apr 7
First Quarter
Apr 15
Full
Apr 22
Last Quarter
Apr 29
New

Hourly Weather History & Observations

Time (CST) Temp. Heat Index Dew Point Humidity Pressure Visibility Wind Dir Wind Speed Gust Speed Precip Events Conditions
12:46 AM 69.8 °F - 69.8 °F 100% 30.02 in 7.0 mi Calm Calm - N/A   Clear
1:55 AM 68.0 °F - 68.0 °F 100% 30.00 in 7.0 mi Calm Calm - N/A   Clear
2:40 AM 68.0 °F - 68.0 °F 100% 30.02 in 7.0 mi Calm Calm - N/A   Clear
3:57 AM 66.2 °F - 66.2 °F 100% 29.98 in 7.0 mi Calm Calm - N/A   Clear
4:48 AM 66.2 °F - 66.2 °F 100% 29.99 in 7.0 mi Calm Calm - N/A   Clear
5:44 AM 66.2 °F - 66.2 °F 100% 29.99 in 7.0 mi Calm Calm - N/A   Partly Cloudy
6:41 AM 68.0 °F - 68.0 °F 100% 30.02 in 8.0 mi ESE 3.5 mph - N/A   Partly Cloudy
7:40 AM 75.2 °F - 71.6 °F 89% 30.04 in 8.0 mi ESE 9.2 mph - N/A   Scattered Clouds
8:45 AM 80.6 °F 84.6 °F 71.6 °F 74% 30.08 in 8.0 mi SE 6.9 mph - N/A   Mostly Cloudy
9:53 AM 82.4 °F 87.2 °F 71.6 °F 70% 30.05 in 8.0 mi ESE 12.7 mph - N/A   Mostly Cloudy
10:40 AM 82.4 °F 87.2 °F 71.6 °F 70% 30.05 in 8.0 mi ESE 10.4 mph - N/A   Mostly Cloudy
11:45 AM 82.4 °F 86.3 °F 69.8 °F 66% 30.02 in 8.0 mi SE 11.5 mph - N/A   Mostly Cloudy
12:40 PM 82.4 °F 87.2 °F 71.6 °F 70% 30.01 in 8.0 mi SE 6.9 mph - N/A   Mostly Cloudy
1:43 PM 82.4 °F 87.2 °F 71.6 °F 70% 29.99 in 8.0 mi SE 10.4 mph - N/A   Mostly Cloudy
2:47 PM 82.4 °F 87.2 °F 71.6 °F 70% 30.01 in 8.0 mi ESE 9.2 mph - N/A   Mostly Cloudy
3:59 PM 80.6 °F 84.6 °F 71.6 °F 74% 29.98 in 8.0 mi ESE 13.8 mph - N/A   Mostly Cloudy
4:41 PM 80.6 °F 84.6 °F 71.6 °F 74% 29.99 in 8.0 mi SE 13.8 mph - N/A   Scattered Clouds
5:46 PM 78.8 °F - 68.0 °F 69% 29.98 in 7.0 mi ESE 15.0 mph - N/A   Scattered Clouds
6:40 PM 75.2 °F - 71.6 °F 89% 30.00 in 7.0 mi ESE 8.1 mph - N/A   Scattered Clouds
7:43 PM 73.4 °F - 71.6 °F 94% 30.02 in 7.0 mi East 3.5 mph - N/A   Scattered Clouds
8:40 PM 71.6 °F - 71.6 °F 100% 30.06 in 7.0 mi Calm Calm - N/A   Scattered Clouds
9:48 PM 71.6 °F - 71.6 °F 100% 30.04 in 7.0 mi East 3.5 mph - N/A   Scattered Clouds
10:47 PM 69.8 °F - 69.8 °F 100% 30.04 in 7.0 mi Calm Calm - N/A   Scattered Clouds
11:44 PM 71.6 °F - 71.6 °F 100% 30.01 in 7.0 mi ESE 5.8 mph - N/A   Partly Cloudy